Tracking 27419 objects as of 10-Jun-2023
HD Live streaming from Space Station
objects crossing your sky now

FREGAT DEB

Track FREGAT DEB now!
10-day predictions


NORAD ID: 45948
Int'l Code: 2011-037FD
Perigee: 1,137.5 km
Apogee: 4,285.8 km
Inclination: 51.3 °
Period: 143.6 minutes
Semi major axis: 9082 km
RCS: Unknown
Launch date: July 18, 2011
Source: Commonwealth of Independent States (former USSR) (CIS)
Launch site: TYURATAM MISSILE AND SPACE COMPLEX (TTMTR)

Note: This is SATELLITE DEBRIS
Your satellite tracking list
Your tracking list is empty




NASA's NSSDC Master Catalog

Two Line Element Set (TLE):
1 45948U 11037FD  23160.21413995  .00003518  00000-0  42805-1 0  9995
2 45948  51.2796 102.8780 1733159 161.3112 206.0304 10.02957902 60200
Source of the keplerian elements: AFSPC